| time (UTC) | temp F | wind direction | speed MPH | gust MPH | rain 1hr in | rain 24hr in | rain mn in | humidity % | barometer mb |
| 20260903171251 | 67 | 292 | 1.0 | 5.0 | 0.76 | 0.88 | 0.81 | 94 | 1012.2 |
| 20260903171219 | 67 | 281 | 1.0 | 6.0 | 0.84 | 0.96 | 0.88 | 94 | 1012.2 |
| 20260903170454 | 67 | 338 | 2.0 | 8.0 | 0.73 | 0.85 | 0.78 | 93 | 1012.2 |
| 20260903165612 | 68 | 315 | 2.0 | 8.0 | 0.68 | 0.80 | 0.72 | 94 | 1012.9 |
| 20260903165115 | 68 | 287 | 1.0 | 4.0 | 0.65 | 0.76 | 0.69 | 93 | 1013.0 |
| 20260903164608 | 69 | 109 | 1.0 | 4.0 | 0.57 | 0.68 | 0.62 | 92 | 1013.0 |
| 20260903164108 | 70 | 331 | 1.0 | 4.0 | 0.33 | 0.44 | 0.36 | 92 | 1011.4 |
| 20260903163609 | 71 | 311 | 1.0 | 3.0 | 0.15 | 0.26 | 0.20 | 91 | 1011.5 |
| 20260903163108 | 71 | 15 | 1.0 | 5.0 | 0.04 | 0.15 | 0.09 | 91 | 1011.5 |
| 20260903162610 | 72 | 26 | 2.0 | 5.0 | 0.01 | 0.12 | 0.04 | 91 | 1011.2 |
| 20260903162053 | 72 | 55 | 1.0 | 5.0 | 0.01 | 0.12 | 0.04 | 93 | 1011.3 |
| 20260903161548 | 73 | 355 | 1.0 | 4.0 | 0.01 | 0.12 | 0.04 | 92 | 1011.3 |
| 20260903161046 | 73 | 288 | 1.0 | 4.0 | 0.01 | 0.12 | 0.04 | 92 | 1010.8 |
| 20260903160538 | 73 | 355 | 0.0 | 1.0 | 0.01 | 0.12 | 0.04 | 92 | 1010.8 |
| 20260903160343 | 74 | 96 | 1.0 | 5.0 | 0.01 | 0.12 | 0.04 | 92 | 1010.8 |
| 20260903155832 | 74 | 96 | 1.0 | 6.0 | 0.00 | 0.11 | 0.04 | 92 | 1010.3 |
| 20260903155324 | 74 | 118 | 2.0 | 6.0 | 0.00 | 0.11 | 0.03 | 91 | 1010.3 |
| 20260903154509 | 74 | 138 | 1.0 | 5.0 | 0.00 | 0.11 | 0.03 | 91 | 1010.1 |
| 20260903154009 | 73 | 114 | 2.0 | 5.0 | 0.00 | 0.11 | 0.03 | 91 | 1010.1 |
| 20260903153505 | 73 | 43 | 2.0 | 6.0 | 0.00 | 0.11 | 0.03 | 91 | 1010.1 |
| 20260903153015 | 73 | 133 | 2.0 | 6.0 | 0.00 | 0.11 | 0.03 | 91 | 1010.6 |
| 20260903152503 | 73 | 155 | 1.0 | 4.0 | 0.00 | 0.11 | 0.03 | 91 | 1010.6 |
| 20260903151953 | 73 | 120 | 1.0 | 4.0 | 0.00 | 0.11 | 0.03 | 91 | 1010.6 |
| 20260903151448 | 73 | 136 | 2.0 | 5.0 | 0.00 | 0.11 | 0.03 | 92 | 1010.8 |
| 20260903150944 | 72 | 82 | 2.0 | 5.0 | 0.00 | 0.11 | 0.03 | 93 | 1010.7 |
| 20260903150441 | 72 | 86 | 1.0 | 4.0 | 0.00 | 0.11 | 0.03 | 94 | 1010.7 |
| 20260903145939 | 72 | 76 | 0.0 | 4.0 | 0.00 | 0.11 | 0.03 | 95 | 1010.9 |
| 20260903145441 | 71 | 113 | 0.0 | 0.0 | 0.00 | 0.11 | 0.03 | 95 | 1010.8 |
| 20260903145225 | 71 | 113 | 0.0 | 2.0 | 0.00 | 0.11 | 0.03 | 95 | 1010.8 |
| 20260903144419 | 71 | 112 | 1.0 | 4.0 | 0.00 | 0.11 | 0.03 | 95 | 1011.0 |
| 20260903143909 | 71 | 104 | 0.0 | 4.0 | 0.00 | 0.11 | 0.03 | 95 | 1011.0 |
| 20260903143403 | 71 | 188 | 0.0 | 0.0 | 0.00 | 0.11 | 0.03 | 96 | 1011.0 |
| 20260903142856 | 71 | 188 | 0.0 | 0.0 | 0.00 | 0.11 | 0.03 | 96 | 1010.9 |
| 20260903142356 | 70 | 189 | 0.0 | 0.0 | 0.00 | 0.11 | 0.03 | 97 | 1010.9 |
| 20260903141854 | 70 | 189 | 0.0 | 0.0 | 0.00 | 0.11 | 0.03 | 97 | 1010.9 |
| 20260903141345 | 70 | 189 | 0.0 | 2.0 | 0.00 | 0.11 | 0.03 | 97 | 1010.7 |
| 20260903140837 | 70 | 189 | 1.0 | 2.0 | 0.00 | 0.11 | 0.03 | 97 | 1010.7 |
| 20260903140332 | 69 | 90 | 0.0 | 2.0 | 0.00 | 0.11 | 0.03 | 97 | 1010.7 |
| 20260903140131 | 70 | 80 | 0.0 | 1.0 | 0.00 | 0.11 | 0.03 | 97 | 1010.8 |
| 20260903135312 | 69 | 117 | 0.0 | 2.0 | 0.00 | 0.11 | 0.03 | 97 | 1010.8 |
| 20260903135117 | 69 | 116 | 0.0 | 2.0 | 0.00 | 0.11 | 0.03 | 97 | 1010.8 |
| 20260903134308 | 69 | 163 | 0.0 | 1.0 | 0.00 | 0.11 | 0.03 | 97 | 1011.0 |
| 20260903133807 | 69 | 163 | 0.0 | 1.0 | 0.00 | 0.11 | 0.03 | 97 | 1011.0 |
| 20260903133318 | 69 | 163 | 0.0 | 0.0 | 0.00 | 0.11 | 0.03 | 97 | 1011.0 |
| 20260903132756 | 69 | 163 | 0.0 | 0.0 | 0.01 | 0.11 | 0.03 | 97 | 1011.1 |
| 20260903132257 | 69 | 163 | 0.0 | 0.0 | 0.03 | 0.11 | 0.03 | 97 | 1011.1 |
| 20260903131748 | 69 | 163 | 0.0 | 0.0 | 0.03 | 0.11 | 0.03 | 98 | 1011.1 |
| 20260903131249 | 69 | 163 | 0.0 | 1.0 | 0.03 | 0.11 | 0.03 | 98 | 1011.1 |
| 20260903131046 | 68 | 163 | 0.0 | 1.0 | 0.03 | 0.11 | 0.03 | 97 | 1011.1 |
| 20260903130549 | 68 | 163 | 0.0 | 2.0 | 0.03 | 0.11 | 0.03 | 97 | 1011.1 |
| 20260903125739 | 67 | 163 | 0.0 | 2.0 | 0.03 | 0.11 | 0.03 | 97 | 1011.2 |
| 20260903125240 | 67 | 163 | 0.0 | 1.0 | 0.03 | 0.11 | 0.03 | 97 | 1011.1 |
| 20260903124734 | 67 | 163 | 0.0 | 2.0 | 0.03 | 0.11 | 0.03 | 97 | 1011.1 |
| 20260903124228 | 67 | 163 | 1.0 | 4.0 | 0.03 | 0.11 | 0.03 | 97 | 1010.7 |
| 20260903123711 | 67 | 163 | 2.0 | 5.0 | 0.03 | 0.11 | 0.03 | 97 | 1010.7 |
| 20260903123210 | 67 | 161 | 1.0 | 4.0 | 0.03 | 0.11 | 0.03 | 97 | 1010.7 |
| 20260903122706 | 67 | 12 | 0.0 | 0.0 | 0.01 | 0.09 | 0.01 | 97 | 1011.6 |
| 20260903122154 | 67 | 290 | 0.0 | 0.0 | 0.00 | 0.08 | 0.00 | 97 | 1011.6 |
| 20260903121950 | 67 | 290 | 0.0 | 0.0 | 0.00 | 0.08 | 0.00 | 98 | 1011.6 |
| 20260903121135 | 67 | 259 | 0.0 | 0.0 | 0.00 | 0.08 | 0.00 | 98 | 1011.1 |
| 20260903120618 | 66 | 259 | 0.0 | 0.0 | 0.00 | 0.08 | 0.00 | 98 | 1011.1 |
| 20260903120112 | 66 | 259 | 0.0 | 0.0 | 0.00 | 0.09 | 0.00 | 97 | 1011.0 |
| 20260903115611 | 65 | 259 | 0.0 | 0.0 | 0.00 | 0.09 | 0.00 | 97 | 1010.6 |
| 20260903115105 | 65 | 259 | 0.0 | 0.0 | 0.00 | 0.09 | 0.00 | 97 | 1010.6 |
| 20260903114609 | 65 | 259 | 0.0 | 0.0 | 0.00 | 0.09 | 0.00 | 97 | 1010.6 |
| 20260903114050 | 65 | 259 | 0.0 | 0.0 | 0.00 | 0.09 | 0.00 | 97 | 1011.0 |
| 20260903113547 | 65 | 265 | 0.0 | 0.0 | 0.00 | 0.09 | 0.00 | 97 | 1011.0 |
| 20260903113047 | 65 | 265 | 0.0 | 0.0 | 0.00 | 0.09 | 0.00 | 97 | 1011.0 |
| 20260903112544 | 65 | 265 | 0.0 | 0.0 | 0.00 | 0.09 | 0.00 | 97 | 1010.7 |
| 20260903112053 | 65 | 265 | 0.0 | 0.0 | 0.00 | 0.09 | 0.00 | 97 | 1010.7 |
| 20260903111544 | 65 | 265 | 0.0 | 0.0 | 0.00 | 0.09 | 0.00 | 97 | 1010.7 |
| 20260903111034 | 65 | 265 | 0.0 | 0.0 | 0.00 | 0.09 | 0.00 | 97 | 1010.6 |
| 20260903110529 | 65 | 265 | 0.0 | 0.0 | 0.00 | 0.09 | 0.00 | 97 | 1010.6 |
| 20260903110009 | 65 | 265 | 0.0 | 0.0 | 0.00 | 0.09 | 0.00 | 97 | 1010.6 |
| 20260903105501 | 65 | 265 | 0.0 | 0.0 | 0.00 | 0.09 | 0.00 | 97 | 1010.6 |
| 20260903105322 | 65 | 265 | 0.0 | 0.0 | 0.00 | 0.09 | 0.00 | 97 | 1010.6 |
| 20260903104453 | 65 | 265 | 0.0 | 0.0 | 0.00 | 0.09 | 0.00 | 96 | 1010.6 |
| 20260903103952 | 65 | 265 | 0.0 | 0.0 | 0.00 | 0.09 | 0.00 | 96 | 1010.6 |
| 20260903103451 | 65 | 265 | 0.0 | 0.0 | 0.00 | 0.09 | 0.00 | 96 | 1010.6 |
| 20260903102947 | 65 | 265 | 0.0 | 0.0 | 0.00 | 0.09 | 0.00 | 96 | 1010.5 |
| 20260903102447 | 65 | 265 | 0.0 | 0.0 | 0.00 | 0.09 | 0.00 | 96 | 1010.5 |
| 20260903101945 | 65 | 265 | 0.0 | 0.0 | 0.00 | 0.09 | 0.00 | 96 | 1010.5 |
| 20260903101438 | 65 | 265 | 0.0 | 0.0 | 0.00 | 0.09 | 0.00 | 96 | 1010.6 |
| 20260903100930 | 65 | 265 | 0.0 | 0.0 | 0.00 | 0.09 | 0.00 | 96 | 1010.6 |
| 20260903100734 | 66 | 265 | 0.0 | 0.0 | 0.00 | 0.09 | 0.00 | 96 | 1010.6 |
| 20260903095907 | 66 | 265 | 0.0 | 0.0 | 0.00 | 0.09 | 0.00 | 97 | 1010.6 |
| 20260903095401 | 66 | 265 | 0.0 | 0.0 | 0.00 | 0.09 | 0.00 | 97 | 1010.6 |
| 20260903094855 | 66 | 265 | 0.0 | 0.0 | 0.00 | 0.09 | 0.00 | 97 | 1010.6 |
| 20260903094656 | 66 | 265 | 0.0 | 0.0 | 0.00 | 0.09 | 0.00 | 97 | 1010.7 |
| 20260903093846 | 66 | 265 | 0.0 | 0.0 | 0.00 | 0.09 | 0.00 | 96 | 1010.7 |
| 20260903093342 | 66 | 265 | 0.0 | 0.0 | 0.00 | 0.09 | 0.00 | 96 | 1010.7 |
| 20260903092820 | 66 | 265 | 0.0 | 0.0 | 0.00 | 0.09 | 0.00 | 96 | 1010.6 |
| 20260903092312 | 66 | 265 | 0.0 | 0.0 | 0.00 | 0.09 | 0.00 | 96 | 1010.6 |
| 20260903091806 | 66 | 265 | 0.0 | 0.0 | 0.00 | 0.09 | 0.00 | 96 | 1010.6 |
| 20260903091606 | 66 | 265 | 0.0 | 0.0 | 0.00 | 0.09 | 0.00 | 96 | 1010.6 |
| 20260903090743 | 66 | 265 | 0.0 | 0.0 | 0.00 | 0.09 | 0.00 | 96 | 1010.6 |
| 20260903090243 | 66 | 265 | 0.0 | 0.0 | 0.00 | 0.09 | 0.00 | 96 | 1010.6 |
| 20260903085742 | 66 | 265 | 0.0 | 0.0 | 0.00 | 0.09 | 0.00 | 97 | 1010.6 |
| 20260903085229 | 66 | 265 | 0.0 | 0.0 | 0.00 | 0.09 | 0.00 | 97 | 1010.6 |
| 20260903084717 | 66 | 265 | 0.0 | 0.0 | 0.00 | 0.09 | 0.00 | 96 | 1010.6 |
| 20260903084206 | 67 | 265 | 0.0 | 0.0 | 0.00 | 0.09 | 0.00 | 96 | 1010.6 |
| 20260903083650 | 67 | 265 | 0.0 | 0.0 | 0.00 | 0.09 | 0.00 | 96 | 1010.6 |
| 20260903083140 | 67 | 265 | 0.0 | 0.0 | 0.00 | 0.09 | 0.00 | 97 | 1010.6 |
| 20260903082614 | 67 | 265 | 0.0 | 0.0 | 0.00 | 0.09 | 0.00 | 96 | 1010.7 |
| 20260903082107 | 67 | 265 | 0.0 | 0.0 | 0.00 | 0.09 | 0.00 | 96 | 1010.7 |
| 20260903081609 | 67 | 265 | 0.0 | 0.0 | 0.00 | 0.09 | 0.00 | 96 | 1010.7 |
| 20260903081051 | 67 | 265 | 0.0 | 0.0 | 0.00 | 0.09 | 0.00 | 96 | 1010.6 |
| 20260903080841 | 67 | 265 | 0.0 | 0.0 | 0.00 | 0.09 | 0.00 | 96 | 1010.6 |
| 20260903080037 | 67 | 265 | 0.0 | 0.0 | 0.00 | 0.09 | 0.00 | 96 | 1010.6 |
| 20260903075535 | 67 | 265 | 0.0 | 0.0 | 0.00 | 0.09 | 0.00 | 96 | 1010.5 |
| 20260903075024 | 67 | 265 | 0.0 | 0.0 | 0.00 | 0.09 | 0.00 | 96 | 1010.5 |
| 20260903074822 | 67 | 265 | 0.0 | 0.0 | 0.00 | 0.09 | 0.00 | 96 | 1010.5 |
| 20260903074058 | 67 | 265 | 0.0 | 0.0 | 0.00 | 0.09 | 0.00 | 96 | 1010.6 |
| 20260903072956 | 67 | 265 | 0.0 | 0.0 | 0.00 | 0.09 | 0.00 | 96 | 1010.6 |
| 20260903072456 | 67 | 265 | 0.0 | 0.0 | 0.00 | 0.09 | 0.00 | 96 | 1010.6 |
| 20260903071949 | 67 | 265 | 0.0 | 0.0 | 0.00 | 0.09 | 0.00 | 96 | 1010.6 |
| 20260903071446 | 67 | 265 | 0.0 | 0.0 | 0.00 | 0.09 | 0.00 | 96 | 1010.4 |
| 20260903070940 | 68 | 265 | 0.0 | 0.0 | 0.00 | 0.09 | 0.00 | 96 | 1010.4 |
| 20260903070556 | 68 | 265 | 0.0 | 0.0 | 0.00 | 0.09 | 0.00 | 96 | 1010.6 |
| 20260903070524 | 68 | 265 | 0.0 | 0.0 | 0.00 | 0.09 | 0.00 | 96 | 1010.4 |
| 20260903065716 | 68 | 265 | 0.0 | 0.0 | 0.00 | 0.09 | 0.00 | 96 | 1010.6 |
| 20260903064903 | 68 | 265 | 0.0 | 0.0 | 0.00 | 0.09 | 0.00 | 96 | 1010.6 |
| 20260903064358 | 68 | 265 | 0.0 | 0.0 | 0.00 | 0.09 | 0.00 | 96 | 1010.3 |
| 20260903063859 | 68 | 265 | 0.0 | 0.0 | 0.00 | 0.09 | 0.00 | 96 | 1010.3 |
| 20260903063651 | 68 | 265 | 0.0 | 0.0 | 0.00 | 0.09 | 0.00 | 96 | 1010.3 |
| 20260903062840 | 68 | 265 | 0.0 | 0.0 | 0.00 | 0.09 | 0.00 | 96 | 1010.1 |
| 20260903062352 | 68 | 265 | 0.0 | 0.0 | 0.00 | 0.09 | 0.00 | 95 | 1010.1 |
| 20260903061833 | 68 | 265 | 0.0 | 0.0 | 0.00 | 0.09 | 0.00 | 96 | 1010.1 |
| 20260903061318 | 68 | 265 | 0.0 | 0.0 | 0.00 | 0.09 | 0.00 | 96 | 1010.3 |
| 20260903060810 | 68 | 265 | 0.0 | 0.0 | 0.00 | 0.09 | 0.00 | 96 | 1010.3 |
| 20260903060304 | 68 | 265 | 0.0 | 0.0 | 0.00 | 0.09 | 0.00 | 96 | 1010.3 |
| 20260903055744 | 68 | 265 | 0.0 | 0.0 | 0.00 | 0.09 | 0.00 | 96 | 1010.4 |
| 20260903055237 | 68 | 265 | 0.0 | 0.0 | 0.00 | 0.09 | 0.00 | 96 | 1010.4 |
| 20260903054732 | 69 | 265 | 0.0 | 0.0 | 0.00 | 0.09 | 0.00 | 96 | 1010.5 |
| 20260903054526 | 69 | 265 | 0.0 | 0.0 | 0.00 | 0.09 | 0.00 | 96 | 1010.4 |
| 20260903053706 | 69 | 265 | 0.0 | 0.0 | 0.00 | 0.09 | 0.00 | 96 | 1010.4 |
| 20260903053207 | 69 | 265 | 0.0 | 0.0 | 0.00 | 0.09 | 0.00 | 96 | 1010.4 |
| 20260903053018 | 69 | 265 | 0.0 | 0.0 | 0.00 | 0.09 | 0.00 | 96 | 1010.3 |
| 20260903052206 | 69 | 265 | 0.0 | 0.0 | 0.00 | 0.09 | 0.00 | 95 | 1010.3 |
| 20260903051702 | 69 | 265 | 0.0 | 0.0 | 0.00 | 0.09 | 0.00 | 95 | 1010.3 |
| 20260903051159 | 69 | 265 | 0.0 | 0.0 | 0.00 | 0.09 | 0.00 | 95 | 1010.0 |
| 20260903050654 | 69 | 265 | 0.0 | 0.0 | 0.00 | 0.09 | 0.00 | 95 | 1010.0 |
| 20260903050147 | 69 | 265 | 0.0 | 0.0 | 0.00 | 0.09 | 0.00 | 95 | 1010.0 |
| 20260903045647 | 69 | 265 | 0.0 | 0.0 | 0.00 | 0.09 | 0.00 | 95 | 1010.0 |
| 20260903045155 | 69 | 265 | 0.0 | 0.0 | 0.00 | 0.09 | 0.00 | 95 | 1010.0 |
| 20260903044634 | 69 | 265 | 0.0 | 0.0 | 0.00 | 0.09 | 0.00 | 95 | 1010.0 |
| 20260903044119 | 69 | 265 | 0.0 | 0.0 | 0.00 | 0.09 | 0.00 | 95 | 1010.0 |
| 20260903043610 | 70 | 265 | 0.0 | 0.0 | 0.00 | 0.09 | 0.00 | 95 | 1010.0 |
| 20260903043055 | 70 | 265 | 0.0 | 0.0 | 0.00 | 0.09 | 0.00 | 95 | 1010.0 |
| 20260903042555 | 70 | 265 | 0.0 | 0.0 | 0.00 | 0.09 | 0.00 | 95 | 1010.1 |
| 20260903042048 | 70 | 265 | 0.0 | 0.0 | 0.00 | 0.09 | 0.00 | 95 | 1010.1 |
| 20260903041543 | 70 | 265 | 0.0 | 0.0 | 0.00 | 0.09 | 0.00 | 95 | 1010.1 |
| 20260903041347 | 70 | 265 | 0.0 | 0.0 | 0.00 | 0.09 | 0.00 | 95 | 1010.1 |
| 20260903040528 | 70 | 265 | 0.0 | 0.0 | 0.00 | 0.09 | 0.00 | 95 | 1010.1 |
| 20260903040009 | 70 | 265 | 0.0 | 0.0 | 0.00 | 0.09 | 0.00 | 95 | 1010.1 |
| 20260903035752 | 70 | 265 | 0.0 | 0.0 | 0.00 | 0.09 | 0.09 | 95 | 1010.1 |
| 20260903034944 | 70 | 265 | 0.0 | 0.0 | 0.00 | 0.09 | 0.09 | 95 | 1010.1 |
| 20260903034443 | 70 | 265 | 0.0 | 0.0 | 0.00 | 0.09 | 0.09 | 95 | 1010.1 |
| 20260903033941 | 70 | 265 | 0.0 | 0.0 | 0.00 | 0.09 | 0.09 | 94 | 1010.1 |
| 20260903033730 | 70 | 265 | 0.0 | 0.0 | 0.00 | 0.09 | 0.09 | 94 | 1010.1 |
| 20260903033021 | 71 | 265 | 0.0 | 0.0 | 0.00 | 0.09 | 0.09 | 94 | 1010.1 |
| 20260903033001 | 71 | 265 | 0.0 | 0.0 | 0.00 | 0.09 | 0.09 | 94 | 1010.1 |
| 20260903031900 | 71 | 265 | 0.0 | 0.0 | 0.00 | 0.09 | 0.09 | 94 | 1010.1 |
| 20260903031650 | 71 | 265 | 0.0 | 0.0 | 0.00 | 0.09 | 0.09 | 94 | 1010.1 |
| 20260903030852 | 71 | 265 | 0.0 | 0.0 | 0.00 | 0.09 | 0.09 | 94 | 1010.1 |
| 20260903030400 | 71 | 265 | 0.0 | 0.0 | 0.00 | 0.09 | 0.09 | 94 | 1010.1 |
| 20260903025845 | 71 | 265 | 0.0 | 0.0 | 0.00 | 0.09 | 0.09 | 94 | 1010.3 |
| 20260903025317 | 71 | 265 | 0.0 | 0.0 | 0.00 | 0.09 | 0.09 | 94 | 1010.3 |
| 20260903024807 | 72 | 265 | 0.0 | 0.0 | 0.00 | 0.09 | 0.09 | 94 | 1010.3 |
| 20260903024713 | 72 | 265 | 0.0 | 0.0 | 0.00 | 0.09 | 0.09 | 93 | 1010.3 |
| 20260903024706 | 72 | 265 | 0.0 | 0.0 | 0.00 | 0.09 | 0.09 | 93 | 1010.3 |
| 20260903023244 | 72 | 265 | 0.0 | 0.0 | 0.00 | 0.09 | 0.09 | 93 | 1010.3 |
| 20260903022739 | 72 | 265 | 0.0 | 0.0 | 0.00 | 0.09 | 0.09 | 93 | 1010.1 |
| 20260903022238 | 72 | 265 | 0.0 | 0.0 | 0.00 | 0.09 | 0.09 | 93 | 1010.1 |
| 20260903021737 | 73 | 265 | 0.0 | 0.0 | 0.00 | 0.09 | 0.09 | 93 | 1010.3 |
| 20260903021531 | 73 | 265 | 0.0 | 0.0 | 0.00 | 0.09 | 0.09 | 93 | 1010.1 |
| 20260903021019 | 73 | 265 | 0.0 | 0.0 | 0.00 | 0.09 | 0.09 | 93 | 1010.1 |
| 20260903020224 | 73 | 265 | 0.0 | 0.0 | 0.00 | 0.09 | 0.09 | 92 | 1010.1 |
| 20260903015706 | 73 | 265 | 0.0 | 0.0 | 0.00 | 0.09 | 0.09 | 92 | 1009.9 |
| 20260903015206 | 74 | 265 | 0.0 | 0.0 | 0.00 | 0.09 | 0.09 | 92 | 1009.9 |
| 20260903014656 | 74 | 265 | 0.0 | 0.0 | 0.00 | 0.09 | 0.09 | 92 | 1009.9 |
| 20260903014149 | 74 | 265 | 0.0 | 0.0 | 0.00 | 0.09 | 0.09 | 92 | 1010.0 |
| 20260903013642 | 74 | 265 | 0.0 | 0.0 | 0.00 | 0.09 | 0.09 | 92 | 1010.0 |
| 20260903013123 | 74 | 265 | 0.0 | 1.0 | 0.00 | 0.09 | 0.09 | 92 | 1010.0 |
| 20260903012615 | 75 | 265 | 0.0 | 1.0 | 0.00 | 0.09 | 0.09 | 91 | 1009.8 |
| 20260903012419 | 75 | 265 | 0.0 | 0.0 | 0.00 | 0.09 | 0.09 | 91 | 1009.8 |
| 20260903011609 | 75 | 265 | 0.0 | 0.0 | 0.00 | 0.09 | 0.09 | 91 | 1009.8 |
| 20260903011109 | 75 | 265 | 0.0 | 0.0 | 0.00 | 0.09 | 0.09 | 90 | 1009.7 |
| 20260903010554 | 76 | 265 | 0.0 | 0.0 | 0.00 | 0.09 | 0.09 | 90 | 1009.7 |
| 20260903010104 | 76 | 265 | 0.0 | 0.0 | 0.00 | 0.09 | 0.09 | 89 | 1009.7 |
| 20260903005543 | 76 | 265 | 0.0 | 0.0 | 0.00 | 0.09 | 0.09 | 89 | 1009.5 |
| 20260903005041 | 77 | 265 | 0.0 | 0.0 | 0.00 | 0.09 | 0.09 | 88 | 1009.6 |
| 20260903004831 | 77 | 265 | 0.0 | 0.0 | 0.00 | 0.09 | 0.09 | 88 | 1009.5 |
| 20260903004323 | 78 | 265 | 0.0 | 0.0 | 0.00 | 0.09 | 0.09 | 87 | 1009.5 |
| 20260903003510 | 78 | 265 | 0.0 | 0.0 | 0.00 | 0.09 | 0.09 | 86 | 1009.6 |
| 20260903003002 | 78 | 265 | 0.0 | 0.0 | 0.00 | 0.09 | 0.09 | 86 | 1009.6 |
| 20260903002500 | 79 | 265 | 0.0 | 0.0 | 0.00 | 0.09 | 0.09 | 86 | 1009.6 |
| 20260903002000 | 79 | 265 | 0.0 | 2.0 | 0.00 | 0.09 | 0.09 | 85 | 1009.6 |
| 20260903001445 | 79 | 265 | 0.0 | 2.0 | 0.00 | 0.09 | 0.09 | 85 | 1009.6 |
| 20260903000940 | 80 | 265 | 0.0 | 1.0 | 0.00 | 0.09 | 0.09 | 84 | 1009.6 |
| 20260903000437 | 80 | 265 | 0.0 | 1.0 | 0.00 | 0.09 | 0.09 | 84 | 1009.7 |
| 20260902235937 | 80 | 284 | 0.0 | 2.0 | 0.00 | 0.09 | 0.09 | 84 | 1009.7 |
| 20260902235414 | 80 | 284 | 1.0 | 5.0 | 0.00 | 0.09 | 0.09 | 84 | 1009.7 |
| 20260902234910 | 80 | 284 | 0.0 | 5.0 | 0.00 | 0.09 | 0.09 | 83 | 1009.7 |
| 20260902234405 | 80 | 267 | 0.0 | 2.0 | 0.00 | 0.09 | 0.09 | 84 | 1009.8 |
| 20260902233859 | 80 | 267 | 0.0 | 0.0 | 0.00 | 0.09 | 0.09 | 84 | 1009.8 |
| 20260902233359 | 80 | 287 | 0.0 | 0.0 | 0.00 | 0.09 | 0.09 | 84 | 1009.8 |
| 20260902232854 | 80 | 287 | 0.0 | 2.0 | 0.00 | 0.09 | 0.09 | 84 | 1009.7 |
| 20260902232357 | 80 | 287 | 0.0 | 4.0 | 0.00 | 0.09 | 0.09 | 84 | 1009.7 |
| 20260902231847 | 80 | 287 | 1.0 | 7.0 | 0.00 | 0.09 | 0.09 | 83 | 1009.7 |
| 20260902231347 | 81 | 287 | 1.0 | 7.0 | 0.00 | 0.09 | 0.09 | 83 | 1009.8 |
| 20260902230846 | 81 | 258 | 1.0 | 4.0 | 0.00 | 0.09 | 0.09 | 82 | 1009.8 |
| 20260902230346 | 81 | 275 | 2.0 | 6.0 | 0.00 | 0.09 | 0.09 | 82 | 1009.9 |
| 20260902225843 | 81 | 267 | 2.0 | 6.0 | 0.00 | 0.09 | 0.09 | 81 | 1009.9 |
| 20260902225523 | 82 | 306 | 1.0 | 6.0 | 0.00 | 0.09 | 0.09 | 80 | 1009.9 |
| 20260902225444 | 82 | 282 | 2.0 | 6.0 | 0.00 | 0.09 | 0.09 | 80 | 1009.9 |
| 20260902224651 | 83 | 288 | 1.0 | 6.0 | 0.00 | 0.09 | 0.09 | 78 | 1010.1 |
| 20260902223830 | 83 | 243 | 1.0 | 5.0 | 0.00 | 0.09 | 0.09 | 78 | 1010.1 |
| 20260902223636 | 83 | 289 | 2.0 | 8.0 | 0.00 | 0.09 | 0.09 | 77 | 1010.1 |
| 20260902222813 | 83 | 280 | 3.0 | 8.0 | 0.00 | 0.09 | 0.09 | 76 | 1009.8 |
| 20260902222310 | 83 | 271 | 3.0 | 8.0 | 0.00 | 0.09 | 0.09 | 76 | 1009.8 |
| 20260902221808 | 83 | 294 | 3.0 | 8.0 | 0.00 | 0.09 | 0.09 | 75 | 1009.8 |
| 20260902221312 | 83 | 269 | 3.0 | 8.0 | 0.00 | 0.09 | 0.09 | 75 | 1009.7 |
| 20260902220808 | 83 | 248 | 3.0 | 7.0 | 0.00 | 0.09 | 0.09 | 75 | 1009.7 |
| 20260902220310 | 83 | 303 | 2.0 | 7.0 | 0.00 | 0.09 | 0.09 | 75 | 1009.7 |
| 20260902220123 | 83 | 271 | 2.0 | 5.0 | 0.00 | 0.09 | 0.09 | 76 | 1009.8 |
| 20260902215308 | 83 | 278 | 3.0 | 7.0 | 0.00 | 0.09 | 0.09 | 75 | 1009.8 |
| 20260902214804 | 83 | 258 | 2.0 | 7.0 | 0.00 | 0.09 | 0.09 | 75 | 1009.8 |
| 20260902214308 | 83 | 263 | 2.0 | 4.0 | 0.00 | 0.09 | 0.09 | 75 | 1009.6 |
| 20260902213805 | 83 | 286 | 2.0 | 4.0 | 0.00 | 0.09 | 0.09 | 75 | 1009.6 |
| 20260902213305 | 83 | 300 | 1.0 | 5.0 | 0.00 | 0.09 | 0.09 | 75 | 1009.6 |
| 20260902212939 | 83 | 267 | 1.0 | 4.0 | 0.00 | 0.09 | 0.09 | 79 | 1009.7 |
| 20260902212904 | 83 | 281 | 1.0 | 5.0 | 0.00 | 0.09 | 0.09 | 77 | 1009.7 |
| 20260902211745 | 83 | 287 | 2.0 | 6.0 | 0.00 | 0.09 | 0.09 | 77 | 1009.6 |
| 20260902211244 | 82 | 187 | 2.0 | 6.0 | 0.00 | 0.09 | 0.09 | 78 | 1009.7 |
| 20260902210740 | 82 | 221 | 1.0 | 3.0 | 0.00 | 0.09 | 0.09 | 80 | 1009.7 |
| 20260902210558 | 82 | 209 | 1.0 | 3.0 | 0.00 | 0.09 | 0.09 | 81 | 1009.7 |
| 20260902210054 | 82 | 216 | 1.0 | 3.0 | 0.00 | 0.09 | 0.09 | 83 | 1009.7 |
| 20260902205600 | 81 | 200 | 1.0 | 3.0 | 0.00 | 0.09 | 0.09 | 83 | 1009.7 |
| 20260902204732 | 81 | 194 | 1.0 | 3.0 | 0.00 | 0.09 | 0.09 | 82 | 1009.6 |
| 20260902204226 | 81 | 194 | 1.0 | 3.0 | 0.00 | 0.09 | 0.09 | 84 | 1009.8 |
| 20260902204025 | 80 | 221 | 1.0 | 3.0 | 0.00 | 0.09 | 0.09 | 84 | 1009.8 |
| 20260902203531 | 80 | 227 | 1.0 | 3.0 | 0.00 | 0.09 | 0.09 | 86 | 1009.8 |
| 20260902202714 | 80 | 227 | 1.0 | 3.0 | 0.00 | 0.09 | 0.09 | 86 | 1010.0 |
| 20260902202207 | 79 | 228 | 1.0 | 2.0 | 0.00 | 0.09 | 0.09 | 87 | 1009.9 |
| 20260902201706 | 79 | 228 | 0.0 | 2.0 | 0.00 | 0.09 | 0.09 | 89 | 1009.9 |
| 20260902201307 | 79 | 228 | 0.0 | 2.0 | 0.00 | 0.09 | 0.09 | 89 | 1010.0 |
| 20260902200509 | 79 | 228 | 0.0 | 0.0 | 0.02 | 0.09 | 0.09 | 90 | 1010.0 |
| 20260902195704 | 79 | 228 | 0.0 | 0.0 | 0.03 | 0.09 | 0.09 | 90 | 1009.9 |
| 20260902195203 | 79 | 228 | 0.0 | 1.0 | 0.03 | 0.09 | 0.09 | 89 | 1009.9 |
| 20260902195010 | 79 | 228 | 0.0 | 1.0 | 0.03 | 0.09 | 0.09 | 89 | 1009.9 |
| 20260902194204 | 78 | 228 | 0.0 | 0.0 | 0.03 | 0.09 | 0.09 | 90 | 1010.3 |
| 20260902193704 | 78 | 228 | 1.0 | 2.0 | 0.03 | 0.09 | 0.09 | 90 | 1010.3 |
| 20260902193201 | 78 | 228 | 1.0 | 2.0 | 0.04 | 0.09 | 0.09 | 89 | 1010.1 |
| 20260902192703 | 78 | 228 | 0.0 | 2.0 | 0.04 | 0.09 | 0.09 | 88 | 1010.4 |
| 20260902192204 | 78 | 228 | 0.0 | 2.0 | 0.04 | 0.09 | 0.09 | 91 | 1010.4 |
| 20260902191650 | 78 | 228 | 0.0 | 2.0 | 0.04 | 0.09 | 0.09 | 91 | 1010.4 |
| 20260902191152 | 77 | 228 | 0.0 | 1.0 | 0.04 | 0.09 | 0.09 | 92 | 1010.1 |
| 20260902190644 | 77 | 228 | 1.0 | 4.0 | 0.04 | 0.09 | 0.09 | 91 | 1010.1 |
| 20260902190144 | 77 | 205 | 2.0 | 4.0 | 0.02 | 0.07 | 0.07 | 89 | 1010.1 |
| 20260902185639 | 77 | 175 | 2.0 | 4.0 | 0.01 | 0.06 | 0.06 | 90 | 1010.3 |
| 20260902185228 | 77 | 217 | 1.0 | 4.0 | 0.01 | 0.06 | 0.06 | 90 | 1010.3 |
| 20260902184123 | 77 | 154 | 0.0 | 1.0 | 0.05 | 0.06 | 0.06 | 90 | 1010.4 |
| 20260902183924 | 77 | 154 | 0.0 | 1.0 | 0.05 | 0.06 | 0.06 | 90 | 1010.4 |
| 20260902183417 | 77 | 154 | 0.0 | 1.0 | 0.04 | 0.05 | 0.05 | 89 | 1010.4 |
| 20260902182609 | 77 | 153 | 0.0 | 2.0 | 0.04 | 0.05 | 0.05 | 90 | 1010.3 |
| 20260902182107 | 77 | 153 | 0.0 | 2.0 | 0.04 | 0.05 | 0.05 | 90 | 1010.3 |
| 20260902181914 | 77 | 179 | 0.0 | 1.0 | 0.04 | 0.05 | 0.05 | 89 | 1010.3 |
| 20260902181416 | 77 | 179 | 0.0 | 1.0 | 0.04 | 0.05 | 0.05 | 88 | 1010.4 |
| 20260902180604 | 77 | 179 | 1.0 | 2.0 | 0.04 | 0.05 | 0.05 | 86 | 1010.5 |
| 20260902180101 | 78 | 179 | 1.0 | 2.0 | 0.04 | 0.05 | 0.05 | 84 | 1010.5 |
| 20260902175602 | 78 | 205 | 1.0 | 2.0 | 0.04 | 0.05 | 0.05 | 80 | 1011.4 |
| 20260902175102 | 80 | 355 | 2.0 | 6.0 | 0.04 | 0.05 | 0.05 | 77 | 1011.5 |
| 20260902174556 | 82 | 13 | 4.0 | 9.0 | 0.01 | 0.02 | 0.03 | 73 | 1011.6 |
| 20260902174416 | 83 | 316 | 4.0 | 9.0 | 0.00 | 0.01 | 0.01 | 66 | 1010.9 |
| 20260902173549 | 84 | 263 | 3.0 | 9.0 | 0.00 | 0.01 | 0.01 | 65 | 1010.9 |
| 20260902173047 | 84 | 211 | 3.0 | 7.0 | 0.00 | 0.01 | 0.01 | 65 | 1011.0 |
| 20260902172850 | 83 | 190 | 2.0 | 7.0 | 0.00 | 0.01 | 0.01 | 65 | 1010.6 |
| 20260902172044 | 83 | 205 | 2.0 | 5.0 | 0.00 | 0.01 | 0.01 | 65 | 1010.6 |
| 20260902171904 | 83 | 207 | 2.0 | 6.0 | 0.00 | 0.01 | 0.01 | 66 | 1010.6 |